Voltar ao catálogo

OBJECT E

AtivoSSO
NORAD 100147·UNKNOWN·🇨🇳 China

Lançado Jul 23, 2026 de Jiuquan Satellite Launch Center

Loading…

Próximas Passagens (próximas 24 horas)

TLE

AtualizadoSource: Space-Track

Época: Sep 14, 2026, 10:41 UTC

1 A0147U 26170E   26257.44543133  .00004273  00000-0  27952-3 0  9991
2 A0147  97.5614 263.4503 0017820 103.2259 257.0958 15.08175274  7901

Acompanhe OBJECT E em tempo real com AllMySat

Download on the App Store